Regional Weather Roundup
Issued by NWS

Home | Current Version | Previous Version | Text Only | Print | Product List | Glossary Off
Versions: 1 2 3 4 5 6 7 8 9 10 11 12 13 14 15 16 17 18 19 20 21 22 23 24 25 26 27 28 29 30 31 32 33 34 35 36 37 38 39 40 41 42 43 44 45 46 47 48 49 50

000
ASUS45 KSLC 040610
RWRUT
UTAH REGIONAL WEATHER ROUNDUP
NATIONAL WEATHER SERVICE SALT LAKE CITY UT
1200 AM MDT TUE AUG 04 2015

UTZ001>011-023>025-040700-

NORTHERN UTAH

CITY           SKY/WX    TMP DP  RH WIND       PRES   REMARKS
BRIGHAM CITY   MOCLDY    62  57  83 CALM      30.08S
HILL AFB       CLEAR     62  56  80 E7G17     30.11R
LOGAN          CLEAR     60  56  86 CALM      30.09F
OGDEN          PTCLDY    61  58  90 W8        30.08R
PROVO AIRPORT  PTCLDY    59  54  82 W6        30.09F
SALT LAKE CITY PTCLDY    64  56  75 E10       30.07R
VERNAL         PTCLDY    61  50  67 N6        30.12S
WENDOVER       PTCLDY    70  50  49 NE9       30.05S
HEBER CITY     CLEAR     54  50  87 CALM      30.18S
WEST JORDAN    CLEAR     63  57  82 S8        30.09F

$$

UTZ012>022-026-027-040700-

SOUTHERN/CENTRAL UTAH

CITY           SKY/WX    TMP DP  RH WIND       PRES   REMARKS
BLANDING       MOCLDY    70  48  46 N14G25    30.25R
BRYCE CANYON   CLEAR     57  48  72 NE12      30.31R
CEDAR CITY     CLEAR     66  46  48 S6        30.14R
DELTA          CLEAR     65  56  73 E6        30.08F
HANKSVILLE     PTCLDY    66  55  68 NW5       30.11R
MILFORD        CLEAR     67  49  52 NW9       30.09F
MOAB/CYNLANDS  PTCLDY    66  56  70 SE8       30.07S
PRICE          MOCLDY    63  49  60 N10       30.17F
ST GEORGE      CLEAR     88  39  18 CALM      29.90R
KANAB          CLEAR     73  37  27 S8        30.12R

$$

REGIONAL REPORTS     COLORADO/ARIZONA

CITY           SKY/WX    TMP DP  RH WIND       PRES   REMARKS
CRAIG, CO      PTCLDY    56  53  90 SW9       30.18S
GRAND JUNCTION MOCLDY    69  47  45 N3        30.11F
RIFLE          PTCLDY    61  56  83 SE3       30.13R
MONTROSE       PTCLDY    65  48  54 SE12      30.18S
CORTEZ         CLEAR     58  48  69 N5        30.18R
PAGE, AZ       CLEAR     86  39  19 W6        30.00R
GRAND CANYON   PTCLDY    58  40  51 CALM      30.25R
KINGMAN        CLEAR     80  31  16 S14       29.97F
FLAGSTAFF      CLEAR     58  43  57 CALM      30.29S

$$

REGIONAL REPORTS    NEVADA/IDAHO/WYOMING

CITY           SKY/WX    TMP DP  RH WIND       PRES   REMARKS
LAS VEGAS, NV  PTCLDY    93  24   8 S12       29.79R
ELY            CLEAR     58  41  53 CALM      30.17R
ELKO           CLEAR     69  40  34 W6        30.04F
POCATELLO, ID  CLOUDY    67  57  70 NE5       30.04S
BURLEY         MOCLDY    68  52  56 S12       29.98F
EVANSTON, WY   MOCLDY    51  49  92 SW10      30.22S
ROCK SPRINGS   LGT RAIN  54  51  90 SW14      30.16S
KEMMERER       CLOUDY    52  50  93 W7        30.20F

$$



USA.gov is the U.S. government's official web portal to all federal, state and local government web resources and services.